Regional Weather Roundup
Issued by NWS

Home | Current Version | Previous Version | Graphics & Text | Print | Product List | Glossary On
Versions: 1 2 3 4 5 6 7 8 9 10 11 12 13 14 15 16 17 18 19 20 21 22 23 24 25 26 27 28 29 30 31 32 33 34 35 36 37 38 39 40 41 42 43 44 45 46 47 48 49 50
000
ASUS43 KDTX 190201
RWRMI
MICHIGAN HOURLY REGIONAL WEATHER ROUNDUP
NATIONAL WEATHER SERVICE DETROIT/PONTIAC MI
900 PM EST WED JAN 18 2017

NOTE: "FAIR" INDICATES FEW OR NO CLOUDS BELOW 12,000 FEET WITH NO
SIGNIFICANT WEATHER AND/OR OBSTRUCTION TO VISIBILITY.

MIZ047>049-052>055-059>063-066>070-074>076-081>083-190300-
SOUTHEAST LOWER MICHIGAN

CITY           SKY/WX    TMP DP  RH WIND       PRES   REMARKS
ADRIAN         CLOUDY    33  33 100 W7        30.08F WCI  27
ALMA           CLOUDY    34  33  94 SW7       30.01F WCI  28
ANN ARBOR      CLOUDY    34  33  96 SW12      30.06S WCI  25
BAD AXE        CLOUDY    35  35 100 SW16G26   29.98S WCI  25
CARO           CLOUDY    36  35  96 SW9       30.00S WCI  29
DETROIT        CLOUDY    36  33  89 W13       30.08R WCI  27
FLINT          CLOUDY    35  33  92 SW9       30.03S WCI  28
GROSSE ILE     CLOUDY    36  34  92 W12       30.06S WCI  27
HILLSDALE      FOG       32  32 100 SW7       30.05S VSB 3/4 WCI  26
HOWELL         CLOUDY    34  32  94 SW10      30.03S FOG     WCI  26

CITY           SKY/WX    TMP DP  RH WIND       PRES   REMARKS
JACKSON        CLOUDY    34  32  92 SW10      30.05S WCI  26
LAMBERTVILLE   CLOUDY    37  34  90 W7        30.10R WCI  31
LANSING        CLOUDY    35  32  88 SW9       30.04S WCI  28
LAPEER         CLOUDY    37  34  92 W8        30.03R WCI  30
MASON          CLOUDY    34  33  98 SW7       30.04S FOG     WCI  28
MONROE         CLOUDY    35  35  98 W13G18    30.08S WCI  27
MT. CLEMENS    CLOUDY    39  36  90 SW13G21   30.03S WCI  31
PONTIAC        CLOUDY    35  32  88 SW9       30.02S WCI  28
PORT HOPE        N/A     37  34  89 SW15G21   29.94S WCI  28
PORT HURON     CLOUDY    37  36  93 SW6       30.03S WCI  33
TRI CITIES     CLOUDY    35  34  96 SW16      30.00F FOG     WCI  25
MIDLAND        CLOUDY    36  33  88 SW6       29.99S WCI  31
TROY           CLOUDY    37  33  87 W10G18    30.06S WCI  29
SAGINAW HB     CLOUDY    36  32  87 SW9       30.01S WCI  29
$$
MIZ043>046-050>051-056>058-064>065-071>073-077>080-190300-
SOUTHWEST LOWER MICHIGAN

CITY           SKY/WX    TMP DP  RH WIND       PRES   REMARKS
BATTLE CREEK   CLOUDY    33  32  96 SW15      30.07R WCI  23
BENTON HARBOR  CLOUDY    36  32  85 SW13      30.08F WCI  27
BIG RAPIDS     CLOUDY    33  31  93 SW12      29.98S WCI  25
COLDWATER      CLOUDY    32  32 100 W10       30.09R FOG     WCI  24
FREMONT        CLOUDY    34  34  99 SW15      30.02S WCI  24
HOLLAND        CLOUDY    35  32  88 SW15      30.05F WCI  25
GRAND RAPIDS   CLOUDY    34  31  88 SW18G25   30.05R WCI  23
IONIA          CLOUDY    33  32  97 SW12      30.04R FOG     WCI  24
KALAMAZOO      CLOUDY    34  30  85 SW12      30.08S FOG     WCI  25
LUDINGTON      CLOUDY    35  34  96 SW16G22   29.99S FOG     WCI  25
MARSHALL       CLOUDY    33  32  98 SW9G18    30.06S FOG     WCI  25
MOUNT PLEASANT CLOUDY    34  33  94 SW13G18   29.99R WCI  25
MUSKEGON       CLOUDY    37  33  85 SW16      30.04S WCI  28
SOUTH HAVEN    CLOUDY    35  32  90 SW9       30.07F WCI  27
$$
MIZ016>042-190300-
NORTHERN LOWER MICHIGAN

CITY           SKY/WX    TMP DP  RH WIND       PRES   REMARKS
ALPENA         CLEAR     36  31  82 W7        29.92R WCI  30
BEAVER ISLAND  CLOUDY    36  35  95 SW12G18   29.90S WCI  28
BELLAIRE       CLOUDY    34  32  92 S6        29.94R WCI  29
CADILLAC       CLOUDY    32  31  96 SW13      29.93R WCI  23
CHARLEVOIX     CLOUDY    35  33  94 SW7       29.94S WCI  29
FRANKFORT      CLOUDY    36  35  94 S14       29.95R WCI  27
GAYLORD        MOCLDY    35  29  78 SW8       29.90R WCI  29
GRAYLING       PTCLDY    33  31  94 CALM      29.93R
HARBOR SPRINGS CLOUDY    34  33  95 SW5       29.92R WCI  30
HOUGHTON LAKE  CLOUDY    34  31  88 SW10      29.94R WCI  26
MANISTEE       CLOUDY    35  32  88 S12       29.97S WCI  27
OSCODA         CLOUDY    36  33  90 SW15      29.92S WCI  27
PELLSTON       CLOUDY    36  31  82 W8        29.92R WCI  30
ROGERS CITY    CLOUDY    33  31  94 W5        29.92R WCI  28
TRAVERSE CITY  CLOUDY    36  31  82 SW6       29.93R WCI  31
$$
MIZ007>008-015-190300-
EASTERN UPPER MICHIGAN

CITY           SKY/WX    TMP DP  RH WIND       PRES   REMARKS
KINROSS        CLOUDY    35  32  88 W10       29.89S WCI  27
MACKINAC ISLAN CLOUDY    34  34 100 W12G17    29.89F WCI  25
NEWBERRY       CLOUDY    33  32  98 S6        29.87S WCI  27
S. S. MARIE    CLOUDY    35  32  88 W7        29.88S WCI  29
MUNISING         N/A     33  31  92 CALM      29.85R
$$
MIZ004>006-011>014-085-190300-
CENTRAL UPPER MICHIGAN

CITY           SKY/WX    TMP DP  RH WIND       PRES   REMARKS
MANISTIQUE     CLOUDY    32  32  99 SW5       29.86S WCI  27
ESCANABA       CLOUDY    31  31 100 SW8       29.88R WCI  23
SAWYER-GWINN   CLEAR     34  30  86 CALM      29.83R
$$
MIZ001>003-009>011-084-190300-
WESTERN UPPER MICHIGAN

CITY           SKY/WX    TMP DP  RH WIND       PRES   REMARKS
IRON MOUNTAIN  CLOUDY    36  27  69 W3        29.83S
HOUGHTON       CLOUDY    24  21  88 W6        29.81R WCI  17
COPPER HARBOR    N/A     30  27  88 W5        29.82S WCI  25
IRONWOOD       CLOUDY    36  27  69 SW9       29.82S WCI  29
$$

ABBREVIATIONS USED IN REMARKS
   TC - TEMPERATURE IN CELSIUS
  WCI - WIND CHILL INDEX
   HX - HEAT INDEX
  VSB - VISIBILITY




USA.gov is the U.S. government's official web portal to all federal, state and local government web resources and services.